Location: Kellogg
(38.0159°N, 90.0546°W)
Time: 08:56:10
(UTC+00:00)

S-56A Canister/Altair - Pass Details

Date: 15 September 2024
Orbit: 636 x 2487 km, 38.9° (Epoch: 09 October)

Event Time Altitude Azimuth Distance (km) Brightness Sun altitude
Rises 03:55:17 0° 280° (W) 3,846 11.7 -40.6°
Reaches altitude 10° 03:57:35 10° 280° (W) 3,084 11.0 -40.9°
Enters shadow 04:02:27 48° 278° (W) 1,775 9.4 -41.5°
Maximum altitude 04:05:26 86° 194° (SSW) 1,564 - -41.9°
Drops below altitude 10° 04:17:33 10° 106° (ESE) 4,587 - -43.3°
Sets 04:21:43 0° 106° (ESE) 5,803 - -43.7°
